Iguazu, Argentina

10:51 PM ART on January 19, 2017 (GMT -0300)
Iguazu

Weather History for 87097 - July, 2013

Change the Weather History Date:

Saturday, July 6, 2013

  Actual Average Record
Temperature  
Mean Temperature 70 °F -  
Max Temperature 82 °F 71 °F - ()
Min Temperature 59 °F 50 °F - ()
Cooling Degree Days 6    
Growing Degree Days 20 (Base 50)    
Moisture  
Dew Point 65 °F    
Average Humidity 86    
Maximum Humidity 100    
Minimum Humidity 52    
Precipitation  
Precipitation 0.00 in - - ()
Sea Level Pressure  
Sea Level Pressure 30.04 in    
Wind  
Wind Speed 6 mph ()    
Max Wind Speed 12 mph    
Max Gust Speed -    
Visibility 9.3 miles    
Events      
T = Trace of Precipitation, MM = Missing Value Source: Averaged Metar Reports

Daily Weather History Graph

Daily Weather History Graph

Search for Another Location

Airport or City:

Trip Planner

Search our weather history database for the weather conditions in past years. The results will help you decide how hot, cold, wet, or windy it might be!

Date:

Astronomy

Jul. 06, 2013 Rise Set
Actual Time 7:24 AM ART 6:00 PM ART
Civil Twilight 6:59 AM ART 6:25 PM ART
Nautical Twilight 6:31 AM ART 6:54 PM ART
Astronomical Twilight 6:03 AM ART 7:22 PM ART
Moon 5:52 AM ART (7/6) 4:52 PM ART (7/6)
Length of Visible Light 11h 25m
Length of Day
10h 35m
Waning Crescent, 3% of the Moon is Illuminated
Jul 6
Waning Crescent
Jul 8
New
Jul 16
First Quarter
Jul 22
Full
Jul 29
Last Quarter

Hourly Weather History & Observations

Time (ART) Temp. Heat Index Dew Point Humidity Pressure Visibility Wind Dir Wind Speed Gust Speed Precip Events Conditions
12:00 AM 64.4 °F - 64.4 °F 100% 30.04 in - NE 6.9 mph - N/A   Clear
1:00 AM 64.4 °F - 64.4 °F 100% 30.01 in - NE 5.8 mph - N/A   Clear
2:00 AM 64.4 °F - 64.4 °F 100% 30.04 in - NE 5.8 mph - N/A   Clear
3:00 AM 64 °F - 64 °F 98% 29.96 in 12 mi NE 4.6 mph - -  
3:00 AM 64.4 °F - 64.4 °F 100% 30.01 in - NE 4.6 mph - N/A   Clear
4:00 AM 62.6 °F - 62.6 °F 100% 30.04 in - NE 4.6 mph - N/A   Clear
5:00 AM 62.6 °F - 62.6 °F 100% 30.04 in - NE 4.6 mph - N/A   Clear
6:00 AM 62.6 °F - 62.6 °F 100% 30.04 in - NE 5.8 mph - N/A   Clear
7:00 AM 60.8 °F - 60.8 °F 100% 30.04 in - NE 6.9 mph - N/A   Clear
8:00 AM 60.8 °F - 60.8 °F 100% 30.06 in 4.3 mi NE 5.8 mph - N/A   Unknown
9:00 AM 65 °F - 64 °F 94% 30.05 in 6 mi NE 5.8 mph - -   Clear
9:00 AM 64.4 °F - 64.4 °F 100% 30.09 in - NE 5.8 mph - N/A   Clear
10:00 AM 69.8 °F - 66.2 °F 88% 30.09 in - NE 6.9 mph - N/A   Clear
11:00 AM 73.4 °F - 66.2 °F 78% 30.12 in - NE 8.1 mph - N/A   Clear
12:00 PM 75.2 °F - 68.0 °F 78% 30.09 in - NE 8.1 mph - N/A   Clear
1:00 PM 80.6 °F 83.2 °F 68.0 °F 65% 30.06 in - NE 8.1 mph - N/A   Clear
2:00 PM 80.6 °F 82.7 °F 66.2 °F 61% 30.04 in - NNE 11.5 mph - N/A   Clear
3:00 PM 81 °F - 66 °F 52% 29.96 in 12 mi NE 9.2 mph - -   Clear
3:00 PM 80.6 °F 82.7 °F 66.2 °F 61% 30.01 in - NE 9.2 mph - N/A   Clear
4:00 PM 80.6 °F 82.7 °F 66.2 °F 61% 30.01 in - NNE 9.2 mph - N/A   Clear
5:00 PM 80.6 °F 83.2 °F 68.0 °F 65% 30.01 in - NE 6.9 mph - N/A   Clear
6:00 PM 75.2 °F - 68.0 °F 78% 30.01 in - Calm Calm - N/A   Clear
7:00 PM 71.6 °F - 68.0 °F 88% 30.04 in - NNE 5.8 mph - N/A   Clear
8:00 PM 69.8 °F - 66.2 °F 88% 30.04 in - NE 5.8 mph - N/A   Clear
9:00 PM 67 °F - 65 °F 91% 29.99 in 12 mi NE 6.9 mph - -   Clear
9:00 PM 68.0 °F - 64.4 °F 88% 30.04 in - NE 6.9 mph - N/A   Clear
10:00 PM 66.2 °F - 64.4 °F 94% 30.04 in - NE 4.6 mph - N/A   Clear
11:00 PM 66.2 °F - 64.4 °F 94% 30.06 in - NE 5.8 mph - N/A   Clear